Date,TemperatureHighF,TemperatureAvgF,TemperatureLowF,DewpointHighF,DewpointAvgF,DewpointLowF,HumidityHigh,HumidityAvg,HumidityLow,PressureMaxIn,PressureMinIn,WindSpeedMaxMPH,WindSpeedAvgMPH,GustSpeedMaxMPH,PrecipitationSumIn
2013-2-1,61.0,51.0,42.3,42.6,36.7,26.4,71,58,38,30.40,30.31,16,5,18,0.00
2013-2-2,60.1,49.7,37.0,53.8,39.3,23.0,90,68,47,30.37,30.18,8,3,11,0.00
2013-2-3,61.9,54.4,46.8,52.9,48.2,41.0,93,81,47,30.26,30.13,8,2,14,0.00
2013-2-4,59.2,53.5,47.7,54.1,44.1,34.7,90,71,57,30.13,29.99,4,1,7,0.04
2013-2-5,66.9,59.7,55.6,61.7,57.6,54.0,96,93,83,30.04,29.95,4,0,8,0.31
2013-2-6,62.8,57.7,53.2,59.7,56.3,52.3,98,95,87,30.16,30.02,7,1,9,0.00
2013-2-7,71.6,63.2,58.5,61.3,59.3,56.5,97,88,67,30.02,29.77,10,2,38,1.03
2013-2-9,64.8,54.4,43.9,55.2,49.1,40.8,92,83,68,30.26,30.12,7,1,9,0.00
2013-2-10,72.9,65.5,54.7,68.7,62.2,52.2,98,89,77,30.13,29.97,13,3,18,0.04
2013-2-11,68.2,62.5,57.4,67.6,61.3,55.6,98,96,91,30.12,30.00,10,2,18,0.46
2013-2-12,69.1,61.7,56.8,68.5,60.5,55.4,98,96,92,30.05,29.76,16,4,24,0.56
2013-2-13,66.7,54.1,45.7,66.2,50.8,42.6,98,89,81,30.07,29.78,23,8,26,0.07
2013-2-14,58.3,47.3,41.5,44.2,41.5,39.7,94,81,56,30.17,30.05,10,2,11,0.00
2013-2-15,62.6,52.2,43.2,50.4,45.2,39.6,91,78,51,30.19,30.05,17,4,22,0.00
2013-2-16,52.5,48.3,37.8,44.6,32.9,22.5,77,56,37,30.30,30.09,26,15,32,0.00
2013-2-17,51.1,41.6,32.2,35.2,28.3,21.7,73,60,43,30.40,30.29,9,2,12,0.00
2013-2-18,64.9,54.9,42.6,54.5,44.7,35.4,82,69,51,30.30,30.03,10,2,18,0.00
2013-2-19,65.5,59.6,46.9,60.1,47.8,32.0,96,68,35,30.21,29.97,16,5,20,0.18
2013-2-20,61.3,47.9,40.8,36.9,30.6,25.7,67,52,33,30.28,30.09,7,1,10,0.00
2013-2-21,68.2,57.9,43.9,65.5,48.3,31.6,91,71,54,30.09,29.87,5,2,12,0.00
2013-2-22,70.7,65.1,58.6,68.5,63.8,58.1,98,95,91,29.97,29.85,10,1,25,0.80
2013-2-23,59.5,57.1,55.2,59.0,56.1,53.8,98,97,94,29.95,29.76,15,2,19,0.83
2013-2-24,64.6,57.7,48.9,58.8,54.4,47.8,97,89,77,29.99,29.80,8,1,11,0.29
2013-2-25,67.3,62.1,58.3,65.8,60.6,57.2,97,95,86,29.84,29.51,19,3,30,1.75
2013-2-26,63.5,56.2,51.4,62.6,47.7,39.9,97,73,61,29.93,29.54,20,12,24,0.00
2013-2-27,59.4,54.8,46.8,53.4,46.2,42.3,85,73,59,30.04,29.92,15,6,20,0.00
2013-2-28,56.5,51.5,45.9,48.9,39.6,33.3,86,65,42,30.09,29.98,21,9,23,0.00